KJ5FA-10 Weather Reports


time (UTC)temp
F
wind
direction
speed
knots
gust
knots
rain 1hr
in
rain 24hr
in
rain mn
in
humidity
%
barometer
mb
20260505093928 67 151 1.7 3.5 0.00 0.00 0.00 76 1007.1
20260505092428 67 212 4.3 5.2 0.00 0.00 0.00 75 1007.2
20260505090928 67 142 2.6 3.5 0.00 0.00 0.00 74 1007.4
20260505085427 67 147 1.7 5.2 0.00 0.00 0.00 75 1007.4
20260505083928 66 175 0.9 4.3 0.00 0.00 0.00 74 1007.8
20260505082427 66 231 0.9 1.7 0.00 0.00 0.00 73 1008.0
20260505080928 66 125 2.6 3.5 0.00 0.00 0.00 73 1008.4
20260505075428 66 0 0.0 2.6 0.00 0.00 0.00 72 1008.3
20260505073928 65 115 0.9 2.6 0.00 0.00 0.00 71 1008.3
20260505071231 65 166 1.7 2.6 0.00 0.00 0.00 70 1008.8
20260505065430 65 173 2.6 3.5 0.00 0.00 0.00 69 1009.1
20260505063930 65 0 0.0 3.5 0.00 0.00 0.00 67 1009.3
20260505062430 65 142 3.5 3.5 0.00 0.00 0.00 67 1009.5
20260505060930 65 118 0.9 3.5 0.00 0.00 0.00 67 1009.6
20260505055431 64 112 1.7 3.5 0.00 0.00 0.00 68 1009.9
20260505053930 64 0 0.0 0.9 0.00 0.00 0.00 70 1009.7
20260505052430 63 122 0.9 0.9 0.00 0.00 0.00 70 1010.1
20260505050930 64 0 0.0 0.9 0.00 0.00 0.00 70 1010.0
20260505040930 64 94 0.9 0.9 0.00 0.00 0.00 69 1010.3
20260505035430 65 0 0.0 0.0 0.00 0.00 0.00 69 1010.3
20260505033930 66 110 0.9 0.9 0.00 0.00 0.00 66 1010.5
20260505032430 67 137 0.9 1.7 0.00 0.00 0.00 64 1010.6
20260505030930 67 107 0.9 0.9 0.00 0.00 0.00 63 1010.5
20260505025430 68 150 0.9 1.7 0.00 0.00 0.00 63 1010.3
20260505023930 68 167 0.9 2.6 0.00 0.00 0.00 62 1009.9
20260505022430 68 126 0.9 1.7 0.00 0.00 0.00 62 1009.8
20260505020930 69 99 0.9 0.9 0.00 0.00 0.00 60 1009.5
20260505015431 70 0 0.0 0.0 0.00 0.00 0.00 58 1009.7
20260505013930 70 0 0.0 0.0 0.00 0.00 0.00 57 1009.4
20260505012430 71 110 0.9 0.9 0.00 0.00 0.00 56 1009.1
20260505010930 72 146 1.7 1.7 0.00 0.00 0.00 54 1009.1
20260505005430 73 141 0.9 0.9 0.00 0.00 0.00 52 1009.0
20260505003930 74 161 0.9 1.7 0.00 0.00 0.00 51 1009.2
20260505002431 74 104 0.9 1.7 0.00 0.00 0.00 50 1009.1
20260504235431 75 156 1.7 3.5 0.00 0.00 0.00 48 1009.1
20260504233930 76 187 1.7 2.6 0.00 0.00 0.00 47 1009.3
20260504232430 76 130 0.9 0.9 0.00 0.00 0.00 47 1009.2
20260504230930 77 198 2.6 3.5 0.00 0.00 0.00 45 1009.3
20260504225431 77 169 2.6 4.3 0.00 0.00 0.00 45 1009.7
20260504223931 78 173 5.2 6.1 0.00 0.00 0.00 43 1009.9
20260504222430 78 236 3.5 4.3 0.00 0.00 0.00 44 1010.1
20260504220930 78 170 3.5 3.5 0.00 0.00 0.00 44 1010.0
20260504215431 78 186 3.5 4.3 0.00 0.00 0.00 42 1010.1
20260504213930 79 224 2.6 6.1 0.00 0.00 0.00 41 1010.6
20260504212430 79 167 4.3 5.2 0.00 0.00 0.00 41 1010.4
20260504210931 79 300 0.9 7.8 0.00 0.00 0.00 41 1010.7
20260504205431 79 219 4.3 4.3 0.00 0.00 0.00 41 1010.7
20260504203930 80 154 5.2 7.8 0.00 0.00 0.00 41 1011.2
20260504202430 80 237 1.7 1.7 0.00 0.00 0.00 42 1011.2
20260504200930 79 180 1.7 7.0 0.00 0.00 0.00 41 1011.7
20260504195430 79 124 1.7 2.6 0.00 0.00 0.00 41 1012.0
20260504193931 79 191 5.2 6.1 0.00 0.00 0.00 41 1012.3
20260504192431 79 263 1.7 4.3 0.00 0.00 0.00 40 1012.5
20260504190931 78 201 4.3 4.3 0.00 0.00 0.00 42 1012.7
20260504183930 78 211 5.2 6.1 0.00 0.00 0.00 42 1013.0
20260504182430 78 164 2.6 6.1 0.00 0.00 0.00 40 1013.2
20260504180930 77 229 3.5 3.5 0.00 0.00 0.00 43 1013.3
20260504175430 77 146 5.2 6.1 0.00 0.00 0.00 43 1013.6
20260504173930 76 106 2.6 5.2 0.00 0.00 0.00 41 1013.9
20260504150930 69 120 3.5 6.1 0.00 0.00 0.00 59 1015.0